Вернуться в каталог

DELTA 1 DEB

АктивенSSO
NORAD 21438·DEBRIS·🇺🇸 United States

Запущен Jun 12, 1975 с Vandenberg Space Force Base

Loading…

Ближайшие Пролёты (ближайшие 24 часа)

TLE

СвежийSource: Space-Track

Эпоха: Sep 14, 2026, 06:09 UTC

1 21438U 75052DW  26257.25655301  .00000047  00000-0  18183-3 0  9991
2 21438  99.7184 167.1223 0081645  64.0826  87.1570 13.31070899716092

Отслеживайте DELTA 1 DEB в реальном времени с AllMySat

Download on the App Store